This is the latest recevied weather packets stored in our database for station/object KD2DXJ. If no packets are shown the sender has not sent any weather packets the latest 10 day(s).
| Time | Temp. | Humidity | Pressure | Rain* | Wind** | Luminosity | Snow |
|---|---|---|---|---|---|---|---|
| 1778193307 | 9.44° C | 54% | 1008.5 hPa | 0 mm | - | 58 W/m² | - |
| 1778193004 | 9.44° C | 55% | 1008.3 hPa | 0 mm | - | 59 W/m² | - |
| 1778192701 | 9.44° C | 57% | 1008.3 hPa | 0 mm | - | 59 W/m² | - |
| 1778192397 | 10° C | 56% | 1008.3 hPa | 0 mm | - | 56 W/m² | - |
| 1778192094 | 10° C | 54% | 1008.3 hPa | 0 mm | - | 40 W/m² | - |
| 1778191791 | 10.56° C | 52% | 1008.3 hPa | 0 mm | - | 33 W/m² | - |
| 1778191488 | 10.56° C | 51% | 1008.5 hPa | 0 mm | - | 32 W/m² | - |
| 1778191184 | 10.56° C | 54% | 1008.5 hPa | 0 mm | - | 33 W/m² | - |
| 1778190881 | 10° C | 54% | 1008.6 hPa | 0 mm | - | 35 W/m² | - |
| 1778190579 | 10.56° C | 51% | 1008.6 hPa | 0 mm | - | 38 W/m² | - |
| 1778190276 | 10.56° C | 51% | 1008.5 hPa | 0 mm | - | 42 W/m² | - |
| 1778189972 | 10.56° C | 52% | 1008.5 hPa | 0 mm | - | 47 W/m² | - |
| 1778189668 | 10.56° C | 51% | 1008.6 hPa | 0 mm | - | 57 W/m² | - |
| 1778189365 | 10.56° C | 52% | 1008.6 hPa | 0 mm | - | 72 W/m² | - |
| 1778189061 | 11.11° C | 53% | 1008.6 hPa | 0 mm | - | 61 W/m² | - |
| 1778188758 | 11.11° C | 50% | 1008.4 hPa | 0 mm | - | 43 W/m² | - |
| 1778188455 | 11.11° C | 50% | 1008.4 hPa | 0 mm | - | 50 W/m² | - |
| 1778188152 | 10.56° C | 55% | 1008.4 hPa | 0 mm | - | 71 W/m² | - |
| 1778187849 | 10.56° C | 52% | 1008.5 hPa | 0 mm | - | 130 W/m² | - |
| 1778187545 | 11.11° C | 51% | 1008.3 hPa | 0 mm | - | 122 W/m² | - |
| 1778187243 | 11.11° C | 52% | 1008.5 hPa | 0 mm | - | 152 W/m² | - |
| 1778186938 | 10.56° C | 48% | 1008.4 hPa | 0 mm | - | 140 W/m² | - |
| 1778186635 | 11.11° C | 51% | 1008.5 hPa | 0 mm | - | 158 W/m² | - |
| 1778186333 | 11.67° C | 51% | 1008.3 hPa | 0 mm | - | 361 W/m² | - |
| 1778186031 | 10.56° C | 48% | 1008.5 hPa | 0 mm | - | 355 W/m² | - |
* Rain latest hour (hover to see other rain measurements)
** Current wind speed in m/s (hover to see current wind gust speed)